Home   Weather   Sumqayit   Past weeks

Flag for Azerbaijan Past Weather in Sumqayit, Azerbaijan — Yesterday and Last 2 Weeks

Now
77 °F

Passing clouds.


Feels Like: 79 °F
Forecast: 71 / 91 °F
Wind: 3 mph from Northeast

Location: Baku / Bine Airport

Current Time: Aug 31, 2016 at 2:50:27 AM

Latest Report: Aug 31, 2016 at 2:30 AM


Visibility: N/A

Pressure: 29.80 "Hg

Humidity: 79%

Dew Point: 70 °F

Location of SumqayitLocation

Past Weather in Sumqayit — Graph

°F

Sumqayit Temperature Yesterday

Maximum temperature yesterday: 90 °F (at 2:30 PM)
Minimum temperature yesterday: 75 °F (at 10:00 PM)
Average temperature yesterday: 82 °F

High & Low Weather Summary for the Past Weeks

 TemperatureHumidityPressure
High100 °F (Aug 20, 2:00 PM)100% (Aug 17, 4:30 AM)30.04 "Hg (Aug 17, 4:30 AM)
Low68 °F (Aug 19, 3:30 AM)16% (Aug 20, 2:00 PM)29.80 "Hg (Aug 17, 2:30 PM)
Average82 °F63%29.91 "Hg
* Reported Aug 16 1:00 AM — Aug 31 1:30 AM, Sumqayit, Weather by CustomWeather, © 2016

Note: Actual official high and low records may vary slightly from our data, if they occured in-between our weather recording intervals... More about our weather records

Advertising

Sumqayit Weather History for the Previous 24 Hours

Scroll right to see more
 ConditionsComfort  
Time TempWeatherWind HumidityBarometerVisibility
1:30 AM
Wed, Aug 31
75 °FClear.6 mph83%29.86 "Hg10 mi
1:00 AM75 °FClear.5 mph83%29.86 "Hg10 mi
12:30 AM75 °FClear.3 mph78%29.86 "Hg10 mi
12:00 AM75 °FClear.5 mph78%29.86 "Hg10 mi
11:30 PM
Tue, Aug 30
75 °FClear.2 mph78%29.86 "Hg10 mi
11:00 PM75 °FClear.5 mph83%29.86 "Hg10 mi
10:30 PM75 °FClear.3 mph78%29.86 "Hg10 mi
10:00 PM75 °FClear.5 mph78%29.89 "Hg10 mi
9:30 PM77 °FClear.5 mph79%29.89 "Hg10 mi
9:00 PM77 °FClear.5 mph79%29.89 "Hg10 mi
8:30 PM77 °FClear.6 mph79%29.89 "Hg10 mi
8:00 PM79 °FClear.7 mph74%29.89 "Hg10 mi
7:30 PM79 °FClear.7 mph70%29.86 "Hg10 mi
7:00 PM81 °FSunny.8 mph66%29.86 "Hg10 mi
6:30 PM84 °FSunny.9 mph55%29.86 "Hg10 mi
6:00 PM86 °FSunny.9 mph49%29.86 "Hg10 mi
5:30 PM86 °FSunny.9 mph46%29.86 "Hg10 mi
5:00 PM88 °FSunny.9 mph49%29.86 "Hg10 mi
4:30 PM88 °FSunny.10 mph49%29.86 "Hg10 mi
4:00 PM88 °FSunny.9 mph49%29.89 "Hg10 mi
3:30 PM88 °FSunny.10 mph46%29.89 "Hg10 mi
3:00 PM90 °FSunny.9 mph41%29.89 "Hg10 mi
2:30 PM90 °FSunny.12 mph43%29.89 "Hg10 mi
2:00 PM88 °FSunny.12 mph43%29.89 "Hg10 mi
1:30 PM88 °FSunny.13 mph46%29.92 "Hg10 mi
1:00 PM88 °FSunny.14 mph49%29.92 "Hg10 mi
12:30 PM88 °FSunny.13 mph46%29.92 "Hg10 mi
12:00 PM88 °FSunny.15 mph46%29.92 "Hg10 mi
11:30 AM86 °FSunny.15 mph49%29.92 "Hg10 mi
11:00 AM86 °FSunny.15 mph46%29.95 "Hg10 mi
10:30 AM86 °FSunny.15 mph52%29.95 "Hg10 mi
10:00 AM84 °FSunny.15 mph55%29.95 "Hg10 mi
9:30 AM84 °FSunny.16 mph58%29.95 "Hg10 mi
9:00 AM82 °FSunny.15 mph62%29.95 "Hg10 mi
8:30 AM82 °FSunny.14 mph70%29.95 "Hg10 mi
8:00 AM81 °FSunny.16 mph74%29.95 "Hg10 mi
7:30 AM79 °FSunny.15 mph79%29.95 "Hg10 mi
7:00 AM79 °FSunny.14 mph84%29.95 "Hg10 mi
6:30 AM77 °FSunny.12 mph83%29.95 "Hg10 mi
6:00 AM77 °FClear.13 mph79%29.95 "Hg10 mi
5:30 AM77 °FClear.12 mph83%29.92 "Hg10 mi
5:00 AM77 °FClear.10 mph79%29.95 "Hg10 mi
4:30 AM77 °FClear.12 mph79%29.92 "Hg10 mi
4:00 AM77 °FClear.13 mph79%29.95 "Hg10 mi
3:30 AM77 °FClear.12 mph79%29.95 "Hg10 mi
3:00 AM79 °FClear.13 mph74%29.95 "Hg10 mi
2:30 AM79 °FClear.14 mph79%29.95 "Hg10 mi
2:00 AM79 °FClear.16 mph79%29.95 "Hg10 mi
Weather by CustomWeather, © 2016

See weather overviewHow to use our weather pages